Regional Weather Roundup
Issued by NWS

Home | Current Version | Previous Version | Text Only | Print | Product List | Glossary Off
Versions: 1 2 3 4 5 6 7 8 9 10 11 12 13 14 15 16 17 18 19 20 21 22 23 24 25 26 27 28 29 30 31 32 33 34 35 36 37 38 39 40 41 42 43 44 45 46 47 48 49 50

000
ASUS45 KBOU 051007
RWRCO

WEATHER ROUNDUP FOR COLORADO
NATIONAL WEATHER SERVICE DENVER/BOULDER CO
300 AM MST THU MAR 05 2015

NOTE: "FAIR" INDICATES FEW OR NO CLOUDS BELOW 12000 FEET WITH NO
SIGNIFICANT WEATHER AND/OR OBSTRUCTIONS TO VISIBILITY.

COZ001>005-013-030-031-051100-
...NORTHWEST COLORADO...

CITY           SKY/WX    TMP DP  RH WIND       PRES   REMARKS
CRAIG          PTCLDY     2  -2  83 SW3       30.32S
HAYDEN         PTCLDY     7  -2  66 E13       30.29F WCI  -9
MEEKER         CLEAR     11   5  77 NE6       30.32S WCI   1
MOUNT WERNER   NOT AVBL
STEAMBOAT SPGS MOCLDY     1  -4  79 CALM      30.30S
WALDEN         PTCLDY     1  -6  71 SE7       30.19F WCI -11
$$

COZ006>008-011-051100-
...WEST CENTRAL VALLEYS...

CITY           SKY/WX    TMP DP  RH WIND       PRES   REMARKS
GRAND JUNCTION CLEAR     23  11  60 E8        30.35R WCI  14
MONTROSE       PTCLDY    21  11  65 SE8       30.37S WCI  11
EAGLE          PTCLDY     5   1  85 S3        30.40S
RIFLE          MOCLDY    19  10  68 E6        30.38S WCI  11
DELTA          PTCLDY    23  13  65 E8        30.38S WCI  14
NUCLA          PTCLDY    21  12  68 E8        30.37S WCI  12
$$

COZ017>023-064>068-051100-
...SOUTHWEST COLORADO...

CITY           SKY/WX    TMP DP  RH WIND       PRES   REMARKS
DURANGO        CLEAR     15   4  61 CALM      30.28R
CORTEZ         CLEAR     18  12  77 NE5       30.32S WCI  11
PAGOSA SPRINGS CLEAR      1  -5  75 CALM      30.27S
TELLURIDE      PTCLDY     8   0  71 SE7       30.29S WCI  -4
WOLF CREEK PAS   N/A      1   0  92 CALM      30.20R
$$

COZ009-010-012-014-032>034-037-058>063-051100-
...CENTRAL COLORADO...

CITY           SKY/WX    TMP DP  RH WIND       PRES   REMARKS
ASPEN          CLEAR      2  -6  69 S7        30.29F WCI -11
BUENA VISTA    CLEAR      9  -5  51 NW8       30.23S WCI  -3
COPPER MTN     NOT AVBL
BERTHOUD PASS  FAIR      -6 -13  71 NW37G47   29.99R WCI -36
COTTONWOOD PAS CLEAR     14 -15  26 W17G24    30.15S WCI  -3
GUNNISON       PTCLDY    -2 -17  50 SE5       30.36R WCI -12
KREMMLING      PTCLDY     1  -4  78 CALM      30.32F
LEADVILLE      PTCLDY    -8 -16  67 NE14      30.17F WCI -29
SALIDA         CLEAR     15  -4  42 NW9       30.32S WCI   3
SUNLIGHT       PTCLDY     9   3  78 CALM        N/A
WILKERSON PASS PTCLDY     5 -17  36 W10G20    30.10S WCI -10
$$

COZ069>075-051100-
...SAN LUIS VALLEY/SANGRE DE CRISTO MOUNTAINS...

CITY           SKY/WX    TMP DP  RH WIND       PRES   REMARKS
ALAMOSA        PTCLDY    10   3  73 SW3       30.27R
LA VETA PASS   PTCLDY     5  -6  61 MISG      30.11F
SAGUACHE       PTCLDY    18  -4  38 N10       30.26S WCI   6
$$

COZ035-036-038>040-051100-
...NORTHERN COLORADO FRONT RANGE...

CITY           SKY/WX    TMP DP  RH WIND       PRES   REMARKS
DENVER INTL AP PTCLDY    14   0  53 SW14      30.15F WCI  -1
DMNS CITY PARK   N/A     13   3  63 S6        30.17F WCI   4
AURORA         CLEAR     11   2  67 S12       30.16F WCI  -3
FRONT RANGE AP PTCLDY     9   0  66 S14       30.16F WCI  -8
ERIE MUNI ARPT CLEAR      4   1  89 CALM      30.18F
BOULDER MUN AP CLEAR      9   5  85 W3        30.17S
CENTENNIAL     PTCLDY    14  -1  51 S9        30.15F WCI   2
BROOMFIELD     CLEAR     12   1  62 W5        30.15F WCI   4
FORT COLLINS   PTCLDY     3   0  85 CALM      30.19F
LONGMONT       PTCLDY     4  -1  81 CALM      30.21S
$$

COZ041-046-047-076>085-087-088-051100-
...PIKES PEAK/PALMER DIVIDE AND SOUTHERN FOOTHILLS...

CITY           SKY/WX    TMP DP  RH WIND       PRES   REMARKS
COLO. SPRINGS  PTCLDY     1  -4  79 N8        30.19F WCI -13
A. F. ACADEMY  PTCLDY    -3  -7  80 N10       30.16F WCI -19
ELLICOTT       NOT AVBL
FALCON         PTCLDY     2  -2  83 W8        30.16F WCI -12
FORT CARSON    CLEAR      1  -3  85 NW8       30.20F WCI -13
LIMON          PTCLDY    -4  -8  83 N8        30.21F WCI -19
MONUMENT HILL  PTCLDY     3  -6  66 SW7       30.13S WCI  -9
TRINIDAD       MOCLDY     7   1  76 W16       30.24F WCI -11
$$

COZ042>045-048>051-090-091-051100-
...NORTHEAST COLORADO...

CITY           SKY/WX    TMP DP  RH WIND       PRES   REMARKS
GREELEY ARPT   PTCLDY     7  -2  66 CALM      30.20S
AKRON          CLEAR     11   6  81 SW16      30.20F WCI  -6
BURLINGTON     CLEAR     14   7  73 W10       30.26F WCI   1
WRAY           CLEAR     11   8  87 W6        30.26F WCI   1
STERLING       CLEAR      9   5  85 S8        30.23F WCI  -4
HOLYOKE        NOT AVBL
FORT MORGAN    CLEAR      6   2  85 SW5       30.23F WCI  -3
$$

COZ086-089-092>099-051100-
...SOUTHEAST COLORADO...

CITY           SKY/WX    TMP DP  RH WIND       PRES   REMARKS
PUEBLO         CLOUDY     5   3  91 NW5       30.29F WCI  -4
LA JUNTA       CLEAR     12   6  77 W13       30.31F WCI  -3
LAMAR          CLEAR     14   9  80 SW9       30.33S WCI   2
SPRINGFIELD      N/A      6   3  87 W5        30.31S WCI  -3
$$


USA.gov is the U.S. government's official web portal to all federal, state and local government web resources and services.